User: anonymous   Login
Location: �perlecques
(50.8057°N, 2.1521°E)
Time: 12:19:07
(UTC+00:00)
Language:

VELOX 1 - Orbit

View from above orbital plane
View from above orbital plane
View from above satellite
View from above satellite

Ground track
Ground track

The orbit data is extracted from the following two-line orbital elements,

1 40057U 14034E   21264.17884099  .00000463  00000-0  71495-4 0  9992
2 40057  98.3396  61.6189 0012100 110.2556 249.9937 14.78272252389688
Epoch (UTC): 21 September 2021 04:17:31
Eccentricity: 0.0012100
inclination: 98.3396°
perigee height: 626 km
apogee height: 643 km
right ascension of ascending node: 61.6189°
argument of perigee: 110.2556°
revolutions per day: 14.78272252
mean anomaly at epoch: 249.9937°
orbit number at epoch: 38968

The dashed part of the orbit path shows where the satellite is in the earth's shadow,  

DLR